Time,TemperatureF,DewpointF,PressureIn,WindDirection,WindDirectionDegrees,WindSpeedMPH,WindSpeedGustMPH,Humidity,HourlyPrecipIn,Conditions,Clouds,dailyrainin,SoftwareType,DateUTC
2013-07-01 00:01:00,64.0,53.0,30.06,North,355,0.0,1.0,67,0.00,,,0.00,,2013-07-01 05:01:00,
2013-07-01 00:11:00,64.0,53.0,30.07,North,355,0.0,1.0,68,0.00,,,0.00,,2013-07-01 05:11:00,
2013-07-01 00:22:00,63.0,52.0,30.07,North,355,0.0,1.0,68,0.00,,,0.00,,2013-07-01 05:22:00,
2013-07-01 00:33:00,63.0,52.0,30.07,North,355,0.0,1.0,68,0.00,,,0.00,,2013-07-01 05:33:00,
2013-07-01 00:42:00,63.0,52.0,30.07,North,355,0.0,1.0,68,0.00,,,0.00,,2013-07-01 05:42:00,
2013-07-01 00:52:00,63.0,52.0,30.07,North,355,0.0,1.0,68,0.00,,,0.00,,2013-07-01 05:52:00,
2013-07-01 01:02:00,63.0,52.0,30.07,North,355,0.0,1.0,68,0.00,,,0.00,,2013-07-01 06:02:00,
2013-07-01 04:11:00,57.0,52.0,30.09,North,355,0.0,0.0,82,0.00,,,0.00,,2013-07-01 09:11:00,
2013-07-01 04:22:00,57.0,52.0,30.09,North,355,0.0,1.0,83,0.00,,,0.00,,2013-07-01 09:22:00,
2013-07-01 04:34:00,57.0,52.0,30.09,North,355,0.0,1.0,83,0.00,,,0.00,,2013-07-01 09:34:00,
2013-07-01 04:43:00,57.0,52.0,30.10,NNW,347,1.0,4.0,83,0.00,,,0.00,,2013-07-01 09:43:00,
2013-07-01 04:53:00,57.0,52.0,30.10,NNW,346,0.0,4.0,82,0.00,,,0.00,,2013-07-01 09:53:00,
2013-07-01 05:03:00,57.0,52.0,30.11,NNW,346,0.0,1.0,82,0.00,,,0.00,,2013-07-01 10:03:00,
2013-07-01 05:22:00,56.0,51.0,30.11,NE,50,0.0,1.0,83,0.00,,,0.00,,2013-07-01 10:22:00,
2013-07-01 05:33:00,56.0,51.0,30.11,NE,50,1.0,2.0,84,0.00,,,0.00,,2013-07-01 10:33:00,
2013-07-01 05:52:00,56.0,51.0,30.12,NNE,28,1.0,4.0,83,0.00,,,0.00,,2013-07-01 10:52:00,
2013-07-01 06:02:00,56.0,51.0,30.12,NNE,28,0.0,2.0,83,0.00,,,0.00,,2013-07-01 11:02:00,
2013-07-01 06:11:00,56.0,51.0,30.13,NE,34,1.0,3.0,83,0.00,,,0.00,,2013-07-01 11:11:00,
2013-07-01 06:22:00,57.0,52.0,30.13,NNE,33,1.0,4.0,83,0.00,,,0.00,,2013-07-01 11:22:00,
2013-07-01 06:33:00,57.0,52.0,30.13,NNE,33,1.0,3.0,82,0.00,,,0.00,,2013-07-01 11:33:00,
2013-07-01 06:43:00,57.0,52.0,30.13,NNE,33,0.0,3.0,82,0.00,,,0.00,,2013-07-01 11:43:00,
2013-07-01 06:52:00,58.0,53.0,30.13,NNE,33,1.0,3.0,82,0.00,,,0.00,,2013-07-01 11:52:00,
2013-07-01 07:01:00,58.0,52.0,30.13,NNE,26,1.0,5.0,80,0.00,,,0.00,,2013-07-01 12:01:00,
2013-07-01 07:11:00,59.0,53.0,30.14,NNE,26,0.0,2.0,80,0.00,,,0.00,,2013-07-01 12:11:00,
2013-07-01 07:22:00,59.0,53.0,30.14,NNW,332,2.0,4.0,81,0.00,,,0.00,,2013-07-01 12:22:00,
2013-07-01 07:33:00,59.0,53.0,30.14,NNW,336,0.0,3.0,81,0.00,,,0.00,,2013-07-01 12:33:00,
2013-07-01 07:43:00,60.0,53.0,30.14,ENE,61,1.0,3.0,78,0.00,,,0.00,,2013-07-01 12:43:00,
2013-07-01 07:53:00,61.0,54.0,30.14,NNW,346,1.0,4.0,77,0.00,,,0.00,,2013-07-01 12:53:00,
2013-07-01 08:02:00,61.0,53.0,30.14,North,350,2.0,5.0,76,0.00,,,0.00,,2013-07-01 13:02:00,
2013-07-01 08:12:00,62.0,54.0,30.14,North,11,1.0,4.0,75,0.00,,,0.00,,2013-07-01 13:12:00,
2013-07-01 08:23:00,63.0,54.0,30.14,NNW,345,1.0,4.0,73,0.00,,,0.00,,2013-07-01 13:23:00,
2013-07-01 08:33:00,64.0,55.0,30.14,NE,35,3.0,7.0,72,0.00,,,0.00,,2013-07-01 13:33:00,
2013-07-01 08:43:00,65.0,56.0,30.15,NE,47,2.0,5.0,73,0.00,,,0.00,,2013-07-01 13:43:00,
2013-07-01 08:53:00,66.0,56.0,30.15,NE,34,1.0,4.0,71,0.00,,,0.00,,2013-07-01 13:53:00,
2013-07-01 09:01:00,66.0,55.0,30.15,ENE,61,2.0,5.0,68,0.00,,,0.00,,2013-07-01 14:01:00,
2013-07-01 09:11:00,67.0,56.0,30.15,NE,40,1.0,3.0,67,0.00,,,0.00,,2013-07-01 14:11:00,
2013-07-01 09:22:00,68.0,56.0,30.15,ENE,60,1.0,5.0,65,0.00,,,0.00,,2013-07-01 14:22:00,
2013-07-01 09:34:00,68.0,55.0,30.15,ENE,58,2.0,5.0,63,0.00,,,0.00,,2013-07-01 14:34:00,
2013-07-01 09:43:00,69.0,55.0,30.15,NE,53,1.0,4.0,62,0.00,,,0.00,,2013-07-01 14:43:00,
2013-07-01 09:52:00,70.0,55.0,30.15,East,80,1.0,6.0,59,0.00,,,0.00,,2013-07-01 14:52:00,
2013-07-01 10:02:00,71.0,56.0,30.15,SSE,147,1.0,6.0,60,0.00,,,0.00,,2013-07-01 15:02:00,
2013-07-01 10:11:00,72.0,56.0,30.15,SE,144,0.0,4.0,58,0.00,,,0.00,,2013-07-01 15:11:00,
2013-07-01 10:23:00,72.0,56.0,30.15,ENE,73,1.0,4.0,58,0.00,,,0.00,,2013-07-01 15:23:00,
2013-07-01 10:34:00,74.0,56.0,30.15,NE,40,0.0,5.0,54,0.00,,,0.00,,2013-07-01 15:34:00,
2013-07-01 10:43:00,74.0,55.0,30.15,NNE,25,2.0,4.0,52,0.00,,,0.00,,2013-07-01 15:43:00,
2013-07-01 10:52:00,75.0,56.0,30.15,SE,128,1.0,3.0,51,0.00,,,0.00,,2013-07-01 15:52:00,
2013-07-01 11:01:00,75.0,56.0,30.15,NE,36,2.0,6.0,52,0.00,,,0.00,,2013-07-01 16:01:00,
2013-07-01 11:11:00,74.0,53.0,30.15,NE,35,3.0,8.0,48,0.00,,,0.00,,2013-07-01 16:11:00,
2013-07-01 11:22:00,74.0,52.0,30.15,ENE,61,4.0,8.0,46,0.00,,,0.00,,2013-07-01 16:22:00,
2013-07-01 11:33:00,75.0,55.0,30.15,NE,46,1.0,7.0,49,0.00,,,0.00,,2013-07-01 16:33:00,
2013-07-01 11:44:00,76.0,54.0,30.15,North,5,1.0,5.0,47,0.00,,,0.00,,2013-07-01 16:44:00,
2013-07-01 11:53:00,75.0,53.0,30.15,ENE,59,2.0,8.0,46,0.00,,,0.00,,2013-07-01 16:53:00,
2013-07-01 12:02:00,76.0,54.0,30.15,North,355,2.0,6.0,46,0.00,,,0.00,,2013-07-01 17:02:00,
2013-07-01 12:12:00,77.0,54.0,30.15,NE,55,2.0,6.0,45,0.00,,,0.00,,2013-07-01 17:12:00,
2013-07-01 12:23:00,77.0,55.0,30.15,ENE,68,1.0,4.0,47,0.00,,,0.00,,2013-07-01 17:23:00,
2013-07-01 12:34:00,77.0,54.0,30.15,NE,48,3.0,8.0,45,0.00,,,0.00,,2013-07-01 17:34:00,
2013-07-01 12:43:00,78.0,56.0,30.14,ENE,61,3.0,5.0,47,0.00,,,0.00,,2013-07-01 17:43:00,
2013-07-01 12:53:00,78.0,54.0,30.14,NE,37,2.0,5.0,43,0.00,,,0.00,,2013-07-01 17:53:00,
2013-07-01 13:02:00,78.0,56.0,30.14,NNE,19,3.0,5.0,47,0.00,,,0.00,,2013-07-01 18:02:00,
2013-07-01 13:11:00,78.0,55.0,30.14,NNE,27,3.0,8.0,45,0.00,,,0.00,,2013-07-01 18:11:00,
2013-07-01 13:22:00,78.0,56.0,30.14,NW,321,2.0,5.0,46,0.00,,,0.00,,2013-07-01 18:22:00,
2013-07-01 13:33:00,78.0,58.0,30.13,NW,318,1.0,7.0,50,0.00,,,0.00,,2013-07-01 18:33:00,
2013-07-01 13:43:00,79.0,56.0,30.14,ENE,61,2.0,7.0,46,0.00,,,0.00,,2013-07-01 18:43:00,
2013-07-01 13:53:00,79.0,56.0,30.13,NW,309,2.0,6.0,45,0.00,,,0.00,,2013-07-01 18:53:00,
2013-07-01 14:02:00,79.0,55.0,30.13,NNE,26,4.0,10.0,43,0.00,,,0.00,,2013-07-01 19:02:00,
2013-07-01 14:11:00,79.0,56.0,30.13,NE,53,3.0,10.0,45,0.00,,,0.00,,2013-07-01 19:11:00,
2013-07-01 14:22:00,80.0,57.0,30.13,East,81,3.0,9.0,45,0.00,,,0.00,,2013-07-01 19:22:00,
2013-07-01 14:44:00,79.0,58.0,30.12,NNE,30,1.0,6.0,48,0.00,,,0.00,,2013-07-01 19:44:00,
2013-07-01 14:52:00,79.0,56.0,30.12,NE,38,2.0,6.0,46,0.00,,,0.00,,2013-07-01 19:52:00,
2013-07-01 15:02:00,80.0,56.0,30.12,NNW,332,4.0,8.0,44,0.00,,,0.00,,2013-07-01 20:02:00,
2013-07-01 15:11:00,80.0,56.0,30.11,NE,55,4.0,7.0,44,0.00,,,0.00,,2013-07-01 20:11:00,
2013-07-01 15:22:00,80.0,56.0,30.11,East,92,3.0,8.0,44,0.00,,,0.00,,2013-07-01 20:22:00,
2013-07-01 15:34:00,80.0,54.0,30.11,ESE,104,5.0,9.0,41,0.00,,,0.00,,2013-07-01 20:34:00,
2013-07-01 15:43:00,80.0,57.0,30.11,ENE,65,3.0,7.0,45,0.00,,,0.00,,2013-07-01 20:43:00,
2013-07-01 15:52:00,81.0,56.0,30.11,NNE,21,1.0,7.0,43,0.00,,,0.00,,2013-07-01 20:52:00,
2013-07-01 16:02:00,81.0,54.0,30.10,North,355,2.0,6.0,40,0.00,,,0.00,,2013-07-01 21:02:00,
2013-07-01 16:11:00,82.0,58.0,30.10,NE,34,2.0,6.0,44,0.00,,,0.00,,2013-07-01 21:11:00,
2013-07-01 16:24:00,80.0,55.0,30.10,ENE,76,1.0,6.0,42,0.00,,,0.00,,2013-07-01 21:24:00,
2013-07-01 16:34:00,80.0,57.0,30.10,ENE,70,2.0,5.0,45,0.00,,,0.00,,2013-07-01 21:34:00,
2013-07-01 16:43:00,80.0,54.0,30.10,NE,44,0.0,6.0,41,0.00,,,0.00,,2013-07-01 21:43:00,
2013-07-01 16:53:00,81.0,55.0,30.10,North,355,2.0,4.0,41,0.00,,,0.00,,2013-07-01 21:53:00,
2013-07-01 17:01:00,81.0,56.0,30.10,NW,324,2.0,7.0,43,0.00,,,0.00,,2013-07-01 22:01:00,
2013-07-01 17:11:00,81.0,54.0,30.10,NNW,336,0.0,5.0,39,0.00,,,0.00,,2013-07-01 22:11:00,
2013-07-01 17:24:00,81.0,56.0,30.10,East,88,0.0,5.0,43,0.00,,,0.00,,2013-07-01 22:24:00,
2013-07-01 17:33:00,81.0,56.0,30.10,East,88,0.0,1.0,42,0.00,,,0.00,,2013-07-01 22:33:00,
2013-07-01 17:43:00,81.0,55.0,30.10,ENE,69,1.0,3.0,41,0.00,,,0.00,,2013-07-01 22:43:00,
2013-07-01 17:53:00,80.0,57.0,30.09,ESE,105,0.0,4.0,46,0.00,,,0.00,,2013-07-01 22:53:00,
2013-07-01 18:01:00,79.0,59.0,30.09,NE,46,1.0,3.0,50,0.00,,,0.00,,2013-07-01 23:01:00,
2013-07-01 18:11:00,77.0,59.0,30.09,NE,36,1.0,3.0,53,0.00,,,0.00,,2013-07-01 23:11:00,
2013-07-01 18:33:00,75.0,59.0,30.09,SE,146,0.0,2.0,58,0.00,,,0.00,,2013-07-01 23:33:00,
2013-07-01 18:44:00,76.0,60.0,30.09,SE,146,0.0,3.0,58,0.00,,,0.00,,2013-07-01 23:44:00,
2013-07-01 18:53:00,75.0,60.0,30.09,SE,146,0.0,2.0,60,0.00,,,0.00,,2013-07-01 23:53:00,
2013-07-01 19:01:00,75.0,61.0,30.09,SW,220,1.0,2.0,61,0.00,,,0.00,,2013-07-02 00:01:00,
2013-07-01 19:12:00,75.0,61.0,30.09,WSW,244,0.0,3.0,61,0.00,,,0.00,,2013-07-02 00:12:00,
2013-07-01 19:22:00,75.0,61.0,30.09,WSW,244,0.0,2.0,61,0.00,,,0.00,,2013-07-02 00:22:00,
2013-07-01 19:34:00,75.0,60.0,30.10,WSW,244,0.0,1.0,60,0.00,,,0.00,,2013-07-02 00:34:00,
2013-07-01 19:53:00,75.0,62.0,30.10,SE,132,2.0,3.0,63,0.00,,,0.00,,2013-07-02 00:53:00,
2013-07-01 20:01:00,74.0,59.0,30.10,SE,140,1.0,5.0,60,0.00,,,0.00,,2013-07-02 01:01:00,
2013-07-01 20:11:00,74.0,59.0,30.09,SSE,150,1.0,3.0,59,0.00,,,0.00,,2013-07-02 01:11:00,
2013-07-01 20:22:00,73.0,58.0,30.10,SSE,153,1.0,3.0,59,0.00,,,0.00,,2013-07-02 01:22:00,
2013-07-01 20:33:00,73.0,58.0,30.10,South,180,1.0,3.0,60,0.00,,,0.00,,2013-07-02 01:33:00,
2013-07-01 20:43:00,73.0,58.0,30.09,South,175,0.0,2.0,59,0.00,,,0.00,,2013-07-02 01:43:00,
2013-07-01 20:53:00,72.0,59.0,30.10,South,175,0.0,1.0,63,0.00,,,0.00,,2013-07-02 01:53:00,
2013-07-01 21:02:00,72.0,58.0,30.10,South,175,0.0,1.0,62,0.00,,,0.00,,2013-07-02 02:02:00,
2013-07-01 21:11:00,71.0,58.0,30.10,South,175,0.0,1.0,63,0.00,,,0.00,,2013-07-02 02:11:00,
2013-07-01 21:22:00,71.0,59.0,30.11,South,175,0.0,2.0,66,0.00,,,0.00,,2013-07-02 02:22:00,
2013-07-01 21:33:00,70.0,58.0,30.11,South,175,0.0,1.0,66,0.00,,,0.00,,2013-07-02 02:33:00,
2013-07-01 21:43:00,70.0,59.0,30.11,South,175,0.0,0.0,67,0.00,,,0.00,,2013-07-02 02:43:00,
2013-07-01 21:53:00,70.0,59.0,30.11,South,175,0.0,0.0,67,0.00,,,0.00,,2013-07-02 02:53:00,
2013-07-01 22:01:00,69.0,58.0,30.11,South,175,0.0,0.0,69,0.00,,,0.00,,2013-07-02 03:01:00,
2013-07-01 22:12:00,69.0,58.0,30.11,South,175,0.0,0.0,69,0.00,,,0.00,,2013-07-02 03:12:00,
2013-07-01 22:24:00,69.0,60.0,30.11,South,175,0.0,1.0,73,0.00,,,0.00,,2013-07-02 03:24:00,
2013-07-01 22:32:00,68.0,59.0,30.11,East,99,0.0,2.0,73,0.00,,,0.00,,2013-07-02 03:32:00,
2013-07-01 22:43:00,68.0,59.0,30.11,NE,53,0.0,3.0,73,0.00,,,0.00,,2013-07-02 03:43:00,
2013-07-01 22:53:00,68.0,59.0,30.11,NE,45,1.0,3.0,72,0.00,,,0.00,,2013-07-02 03:53:00,
2013-07-01 23:02:00,67.0,57.0,30.11,ESE,109,0.0,1.0,71,0.00,,,0.00,,2013-07-02 04:02:00,
2013-07-01 23:11:00,67.0,57.0,30.11,SE,131,0.0,1.0,71,0.00,,,0.00,,2013-07-02 04:11:00,
2013-07-01 23:22:00,67.0,58.0,30.11,SE,131,0.0,1.0,72,0.00,,,0.00,,2013-07-02 04:22:00,
2013-07-01 23:32:00,67.0,58.0,30.11,SE,131,0.0,1.0,72,0.00,,,0.00,,2013-07-02 04:32:00,
2013-07-01 23:42:00,66.0,57.0,30.12,SE,131,0.0,1.0,74,0.00,,,0.00,,2013-07-02 04:42:00,
2013-07-01 23:53:00,66.0,58.0,30.12,SE,131,0.0,1.0,75,0.00,,,0.00,,2013-07-02 04:53:00,